Location: Carnetin
(48.9010°N, 2.7059°E)
Time: 04:42:53
(UTC+00:00)

USA 229 - Pass Details

Date: 02 June 2022
Orbit: 938 x 1274 km, 63.4° (Epoch: 24 May)

Event Time Altitude Azimuth Distance (km) Brightness Sun altitude
Rises 22:43:38 0° 317° (NW) 3,961 7.8 -17.4°
Reaches altitude 10° 22:46:16 10° 315° (NW) 3,046 7.0 -17.5°
Maximum altitude 22:53:31 65° 235° (SW) 1,315 4.0 -17.8°
Enters shadow 22:58:06 26° 162° (SSE) 2,208 4.7 -18.0°
